Simultaneous Nadir Overpasses (SNOs) Predictions

Prediction of SNOs between AQUA and METOP-B Satellite Orbit:

Table of predicted SNOs for the next 14.0 days since TLE Epoch: 3/30/2024
Index Date (AQUA) Time (AQUA) Lat,Lon (AQUA) SZA (AQUA ) Date (METOP-B) Time (METOP-B) Lat,Lon (METOP-B) SZA (METOP-B ) Distance(km) Time Diff (sec)
1 03/31/2024 06:35:59 75.53, 77.95 71.12 03/31/2024 06:35:41 75.54, 78.03 71.13 2.44 18
2 03/31/2024 07:25:22 -75.57,-114.52 108.85 03/31/2024 07:26:22 -75.56,-114.57 108.87 1.73 60
3 04/02/2024 21:57:56 -75.44, 27.75 110.00 04/02/2024 21:56:43 -75.38, 27.29 110.04 14.61 73
4 04/02/2024 22:47:21 75.54,-164.87 70.09 04/02/2024 22:47:20 75.53,-164.95 70.08 2.56 1
5 04/02/2024 23:36:46 -75.68, 2.37 109.78 04/02/2024 23:37:58 -75.69, 2.90 109.78 14.51 72
6 04/05/2024 14:09:17 -75.49, 144.81 110.97 04/05/2024 14:08:19 -75.50, 144.70 110.96 3.06 58
7 04/05/2024 14:58:41 75.55, -47.68 69.08 04/05/2024 14:58:58 75.54, -47.82 69.08 3.82 17
8 04/08/2024 06:20:35 -75.55, -98.12 111.92 04/08/2024 06:19:55 -75.55, -98.06 111.91 1.57 40
9 04/08/2024 07:09:59 75.60, 69.37 68.13 04/08/2024 07:10:34 75.59, 69.41 68.12 1.46 35
10 04/10/2024 22:31:51 -75.55, 19.10 112.91 04/10/2024 22:31:33 -75.54, 18.98 112.91 3.48 18



Historial Predications of SNOs between AQUA and METOP-B
